Weather History for Moncks Corner, SC

Change the Weather History Date:

Wednesday, September 11, 2013

  Actual Average (KCHS) Record (KCHS)
Temperature  
Mean Temperature 79 °F 77 °F  
Max Temperature 89 °F 86 °F 95 °F (1983)
Min Temperature 69 °F 69 °F 49 °F (1956)
Degree Days  
Heating Degree Days 0 0  
Month to date heating degree days 0  
Since 1 July heating degree days 0  
Cooling Degree Days 14 12  
Month to date cooling degree days 147  
Year to date cooling degree days 1952  
Growing Degree Days 29 (Base 50)    
Moisture  
Dew Point 71 °F    
Average Humidity 80    
Maximum Humidity 100    
Minimum Humidity 46    
Precipitation  
Precipitation 0.00 in 0.22 in 2.98 in (1960)
Month to date precipitation 2.54  
Year to date precipitation 38.18  
Sea Level Pressure  
Sea Level Pressure 30.15 in    
Wind  
Wind Speed 2 mph (East)    
Max Wind Speed 12 mph    
Max Gust Speed 16 mph    
Visibility 8 miles    
Events      
T = Trace of Precipitation, MM = Missing Value Source: NWS Daily Summary

Daily Weather History Graph

Daily Weather History Graph

Search for Another Location

Airport:

Trip Planner

Search our weather history database for the weather conditions in past years. The results will help you decide how hot, cold, wet, or windy it might be!

Date:

Astronomy

Sep. 11, 2013 Rise Set
Actual Time 7:01 AM EDT 7:31 PM EDT
Civil Twilight 6:36 AM EDT 7:56 PM EDT
Nautical Twilight 6:07 AM EDT 8:25 PM EDT
Astronomical Twilight 5:37 AM EDT 8:55 PM EDT
Moon 1:08 PM EDT (9/11) 11:45 PM EDT (9/11)
Length of Visible Light 13h 20m
Length of Day
12h 30m
Waxing Crescent, 38% of the Moon is Illuminated
Sep 11
Waxing Crescent
Sep 12
First Quarter
Sep 19
Full
Sep 26
Last Quarter
Oct 4
New

Hourly Weather History & Observations

Time (EDT) Temp. Heat Index Dew Point Humidity Pressure Visibility Wind Dir Wind Speed Gust Speed Precip Events Conditions
12:15 AM 71.6 °F - 71.6 °F 100% 30.19 in 5.0 mi Calm Calm - N/A   Clear
12:35 AM 71.6 °F - 71.6 °F 100% 30.20 in 7.0 mi Calm Calm - N/A   Clear
12:55 AM 71.6 °F - 71.6 °F 100% 30.19 in 5.0 mi Calm Calm - N/A   Clear
1:15 AM 71.6 °F - 71.6 °F 100% 30.18 in 5.0 mi Calm Calm - N/A   Clear
1:35 AM 71.6 °F - 71.6 °F 100% 30.18 in 5.0 mi Calm Calm - N/A   Clear
1:55 AM 71.6 °F - 71.6 °F 100% 30.18 in 5.0 mi Calm Calm - N/A   Clear
2:15 AM 71.6 °F - 69.8 °F 94% 30.18 in 4.0 mi Calm Calm - N/A   Clear
2:35 AM 71.6 °F - 71.6 °F 100% 30.18 in 5.0 mi Calm Calm - N/A   Clear
2:55 AM 69.8 °F - 69.8 °F 100% 30.18 in 4.0 mi Calm Calm - N/A   Clear
3:15 AM 71.6 °F - 71.6 °F 100% 30.18 in 7.0 mi Calm Calm - N/A   Clear
3:35 AM 71.6 °F - 71.6 °F 100% 30.17 in 7.0 mi Calm Calm - N/A   Clear
3:55 AM 71.6 °F - 71.6 °F 100% 30.16 in 5.0 mi Calm Calm - N/A   Clear
4:15 AM 73.4 °F - 73.4 °F 100% 30.16 in 7.0 mi NNE 3.5 mph - N/A   Clear
4:35 AM 73.4 °F - 73.4 °F 100% 30.16 in 5.0 mi ENE 3.5 mph - N/A   Clear
4:55 AM 73.4 °F - 71.6 °F 94% 30.17 in 7.0 mi Calm Calm - N/A   Clear
5:15 AM 73.4 °F - 71.6 °F 94% 30.17 in 7.0 mi Calm Calm - N/A   Clear
5:35 AM 73.4 °F - 71.6 °F 94% 30.16 in 7.0 mi Calm Calm - N/A   Clear
5:55 AM 71.6 °F - 71.6 °F 100% 30.17 in 7.0 mi Calm Calm - N/A   Clear
6:15 AM 71.6 °F - 71.6 °F 100% 30.17 in 7.0 mi Calm Calm - N/A   Clear
6:35 AM 71.6 °F - 71.6 °F 100% 30.18 in 7.0 mi Calm Calm - N/A   Clear
6:55 AM 73.4 °F - 71.6 °F 94% 30.18 in 7.0 mi Calm Calm - N/A   Clear
7:15 AM 71.6 °F - 71.6 °F 100% 30.18 in 5.0 mi Calm Calm - N/A   Scattered Clouds
7:35 AM 71.6 °F - 71.6 °F 100% 30.18 in 7.0 mi NE 3.5 mph - N/A   Scattered Clouds
7:55 AM 73.4 °F - 73.4 °F 100% 30.18 in 7.0 mi NE 3.5 mph - N/A   Clear
8:15 AM 73.4 °F - 73.4 °F 100% 30.18 in 5.0 mi NE 4.6 mph - N/A   Clear
8:35 AM 73.4 °F - 73.4 °F 100% 30.19 in 7.0 mi ENE 3.5 mph - N/A   Clear
8:55 AM 75.2 °F - 73.4 °F 94% 30.19 in 5.0 mi NE 4.6 mph - N/A   Clear
9:15 AM 77.0 °F - 75.2 °F 94% 30.20 in 7.0 mi ENE 6.9 mph - N/A   Clear
9:35 AM 78.8 °F - 75.2 °F 89% 30.20 in 7.0 mi ENE 6.9 mph - N/A   Clear
9:55 AM 80.6 °F 86.2 °F 75.2 °F 84% 30.19 in 7.0 mi ENE 8.1 mph - N/A   Clear
10:15 AM 80.6 °F 86.2 °F 75.2 °F 84% 30.19 in 7.0 mi ENE 6.9 mph - N/A   Clear
10:35 AM 84.2 °F 92.3 °F 75.2 °F 74% 30.19 in 10.0 mi East 6.9 mph - N/A   Clear
10:55 AM 86.0 °F 95.1 °F 75.2 °F 70% 30.19 in 10.0 mi ENE 8.1 mph - N/A   Scattered Clouds
11:15 AM 86.0 °F 93.4 °F 73.4 °F 66% 30.19 in 7.0 mi ENE 9.2 mph - N/A   Scattered Clouds
11:35 AM 86.0 °F 91.8 °F 71.6 °F 62% 30.19 in 7.0 mi ENE 11.5 mph - N/A   Clear
11:55 AM 87.8 °F 93.8 °F 71.6 °F 58% 30.18 in 7.0 mi ENE 9.2 mph - N/A   Clear
12:15 PM 87.8 °F 93.8 °F 71.6 °F 58% 30.18 in 10.0 mi NE 10.4 mph 16.1 mph N/A   Clear
12:35 PM 86.0 °F 91.8 °F 71.6 °F 62% 30.19 in 7.0 mi ENE 6.9 mph - N/A   Clear
12:55 PM 86.0 °F 91.8 °F 71.6 °F 62% 30.19 in 10.0 mi East 8.1 mph - N/A   Scattered Clouds
1:15 PM 87.8 °F 92.6 °F 69.8 °F 55% 30.18 in 10.0 mi East 5.8 mph - N/A   Clear
1:35 PM 87.8 °F 92.6 °F 69.8 °F 55% 30.18 in 10.0 mi ENE 6.9 mph - N/A   Clear
1:55 PM 87.8 °F 93.8 °F 71.6 °F 58% 30.17 in 10.0 mi ENE 6.9 mph - N/A   Clear
2:15 PM 89.6 °F 96.2 °F 71.6 °F 55% 30.16 in 7.0 mi East 5.8 mph - N/A   Scattered Clouds
2:35 PM 87.8 °F 92.6 °F 69.8 °F 55% 30.16 in 7.0 mi NE 6.9 mph - N/A   Mostly Cloudy
2:55 PM 86.0 °F 91.8 °F 71.6 °F 62% 30.15 in 7.0 mi ENE 5.8 mph - N/A   Mostly Cloudy
3:15 PM 87.8 °F 93.8 °F 71.6 °F 58% 30.14 in 10.0 mi East 8.1 mph - N/A   Scattered Clouds
3:35 PM 89.6 °F 94.7 °F 69.8 °F 52% 30.13 in 10.0 mi East 5.8 mph - N/A   Scattered Clouds
3:55 PM 87.8 °F 91.4 °F 68.0 °F 52% 30.13 in 10.0 mi East 5.8 mph - N/A   Scattered Clouds
4:15 PM 86.0 °F 90.4 °F 69.8 °F 58% 30.13 in 10.0 mi East 3.5 mph - N/A   Scattered Clouds
4:35 PM 89.6 °F 92.2 °F 66.2 °F 46% 30.13 in 7.0 mi ESE 4.6 mph - N/A   Clear
4:55 PM 87.8 °F 91.4 °F 68.0 °F 52% 30.12 in 10.0 mi SE 6.9 mph - N/A   Scattered Clouds
5:15 PM 87.8 °F 91.4 °F 68.0 °F 52% 30.12 in 7.0 mi ESE 5.8 mph - N/A   Clear
5:35 PM 87.8 °F 91.4 °F 68.0 °F 52% 30.11 in 10.0 mi SE 4.6 mph - N/A   Clear
5:55 PM 87.8 °F 90.4 °F 66.2 °F 49% 30.11 in 10.0 mi ESE 4.6 mph - N/A   Clear
6:15 PM 87.8 °F 91.4 °F 68.0 °F 52% 30.11 in 10.0 mi East 4.6 mph - N/A   Clear
6:35 PM 86.0 °F 89.4 °F 68.0 °F 55% 30.10 in 10.0 mi SE 4.6 mph - N/A   Clear
6:55 PM 86.0 °F 89.4 °F 68.0 °F 55% 30.10 in 10.0 mi East 3.5 mph - N/A   Clear
7:15 PM 86.0 °F 90.4 °F 69.8 °F 58% 30.10 in 10.0 mi ESE 3.5 mph - N/A   Clear
7:35 PM 84.2 °F 88.4 °F 69.8 °F 62% 30.10 in 7.0 mi Calm Calm - N/A   Clear
7:55 PM 82.4 °F 86.3 °F 69.8 °F 66% 30.10 in 10.0 mi Calm Calm - N/A   Clear
8:15 PM 80.6 °F 84.6 °F 71.6 °F 74% 30.10 in 10.0 mi SSE 3.5 mph - N/A   Clear
8:35 PM 78.8 °F - 71.6 °F 78% 30.10 in 10.0 mi Calm Calm - N/A   Scattered Clouds
8:55 PM 78.8 °F - 71.6 °F 78% 30.10 in 10.0 mi Calm Calm - N/A   Clear
9:15 PM 77.0 °F - 71.6 °F 83% 30.11 in 10.0 mi Calm Calm - N/A   Clear
9:35 PM 75.2 °F - 71.6 °F 89% 30.11 in 10.0 mi Calm Calm - N/A   Clear
9:55 PM 75.2 °F - 71.6 °F 89% 30.11 in 10.0 mi Calm Calm - N/A   Clear
10:15 PM 73.4 °F - 71.6 °F 94% 30.11 in 10.0 mi Calm Calm - N/A   Clear
10:35 PM 73.4 °F - 71.6 °F 94% 30.11 in 7.0 mi Calm Calm - N/A   Clear
10:55 PM 73.4 °F - 71.6 °F 94% 30.11 in 7.0 mi Calm Calm - N/A   Clear
11:15 PM 71.6 °F - 71.6 °F 100% 30.11 in 7.0 mi Calm Calm - N/A   Clear
11:35 PM 71.6 °F - 71.6 °F 100% 30.11 in 7.0 mi Calm Calm - N/A   Clear
11:55 PM 71.6 °F - 71.6 °F 100% 30.11 in 7.0 mi Calm Calm - N/A   Clear